Temp
13 13 13 14 14 14 14 14 14 15 15 15 15 15 15 16 16 16 16 16 17 17 17 17 17 18 18 19 21 21 21 22 22 22 21 22 21 21 21 21 21 20 20 19 17 18 20
13 13 13 13 14 14 14 14 14 15 15 15 15 15 16 16 16 17 17 17 17 17 17 17 17 18 18 18 21 21 21 21 21 21 21 21 22 22 22 21 21 21 20 19 18 19 19
13 13 13 13 13 14 14 14 14 14 15 15 15 16 16 16 16 17 17 18 18 18 18 17 17 18 18 21 21 21 21 21 21 20 21 21 21 22 22 21 22 19 19 19 18 19 19
13 13 13 13 13 13 14 14 14 14 15 15 15 16 16 16 17 17 18 18 18 18 18 18 17 18 20 21 22 21 21 21 21 21 20 21 21 21 22 22 22 21 20 19 18 17 17
13 13 13 13 13 13 14 14 14 15 15 15 16 16 16 16 17 18 18 19 19 19 18 18 18 18 21 21 21 22 22 21 21 21 21 21 21 21 22 19 18 17 18 19 18 17 18
13 13 13 13 13 13 14 14 14 14 15 15 15 16 16 17 18 18 19 19 19 19 18 18 18 19 22 21 21 22 22 21 21 21 21 21 21 17 15 16 18 19 17 18 18 17 17
13 14 14 13 13 13 13 13 14 14 14 15 15 16 17 17 18 19 19 19 18 18 17 19 19 19 21 22 22 22 22 22 21 21 18 20 17 17 19 19 19 19 19 17 18 17 17
13 14 14 14 14 13 13 13 14 14 14 15 15 16 17 17 18 19 19 18 17 17 16 20 20 20 22 22 22 22 22 22 21 19 19 17 18 19 20 20 21 18 17 17 17 17 17
13 13 14 14 14 14 13 13 14 14 14 14 15 16 17 18 19 19 19 18 18 17 16 20 21 21 22 22 22 23 22 22 21 20 19 17 20 20 21 20 20 18 18 16 18 17 16
13 13 13 14 14 14 14 13 13 14 14 14 15 16 17 18 19 19 19 19 19 19 14 19 21 22 23 22 22 23 23 23 21 20 18 20 20 21 20 20 19 18 18 18 16 17 17
13 13 13 13 14 14 14 14 14 14 14 14 15 16 16 18 18 19 19 19 19 19 17 22 22 23 23 23 23 23 23 23 20 21 19 19 21 21 20 20 19 19 18 17 17 16 16
13 13 13 13 13 14 14 14 14 14 14 15 15 15 16 17 18 19 19 19 19 15 19 20 23 22 22 22 22 22 23 23 22 20 20 19 21 21 20 20 20 18 17 15 15 15 16
13 13 13 13 13 13 14 14 14 14 14 15 15 16 17 17 19 19 19 20 15 16 20 21 21 20 21 21 21 21 21 20 18 19 19 19 20 19 19 17 18 16 14 14 16 15 17
12 12 12 13 12 13 13 14 14 14 14 15 16 17 18 19 19 19 19 15 18 20 19 20 20 20 21 19 20 20 19 18 20 19 16 17 18 18 19 17 16 16 16 14 18 16 17
12 12 12 12 12 12 13 13 14 14 14 15 16 18 19 19 19 19 19 14 16 18 20 20 20 18 18 19 20 18 18 17 20 19 18 18 19 21 19 19 19 17 17 16 15 15 16
12 12 12 12 12 12 12 13 14 14 14 15 17 18 19 19 19 19 15 14 16 17 20 20 20 20 19 18 19 18 18 20 20 20 19 20 18 20 21 20 20 18 18 18 14 17 18
12 12 11 11 11 11 12 12 13 14 15 15 17 18 18 18 19 19 14 13 16 20 20 20 19 19 19 19 18 17 18 19 19 19 18 18 17 19 20 20 18 18 18 17 15 15 16
10 10 10 10 10 11 11 12 12 13 14 15 16 13 17 18 16 10 12 14 19 20 21 21 19 20 19 17 17 17 18 18 19 19 19 18 15 17 19 19 18 18 18 17 16 18 15
10 9 8 9 10 10 11 11 12 12 13 13 14 15 16 17 13 11 13 17 19 20 20 20 20 19 17 16 18 16 18 19 19 18 19 17 15 16 19 19 19 18 18 17 13 13 15
10 9 8 9 10 10 10 11 11 12 12 12 13 13 15 15 15 14 16 17 18 20 20 20 19 18 17 16 14 17 17 17 17 18 19 18 13 17 17 17 17 17 16 16 15 15 16
10 9 8 8 9 9 10 10 11 11 12 12 12 11 12 12 13 14 16 17 18 19 21 20 19 18 16 16 16 16 15 15 17 17 18 15 16 15 17 17 17 16 16 16 17 15 18
10 10 8 8 8 9 9 10 10 11 11 11 12 11 12 12 13 14 13 16 18 18 19 19 19 18 16 15 15 15 16 15 17 16 16 12 16 16 17 17 18 17 16 16 15 15 15
10 10 8 8 7 8 9 9 10 10 10 11 11 11 11 12 12 13 14 17 17 17 20 20 19 17 16 17 18 18 18 16 16 16 15 14 13 15 15 15 17 16 17 16 16 16 15
9 9 9 8 8 8 8 9 10 10 10 10 10 11 10 11 11 14 16 16 16 16 18 18 19 17 19 20 18 17 16 15 15 12 14 14 12 12 14 15 15 16 15 16 16 15 14
9 9 9 8 9 9 9 9 9 10 10 10 9 10 10 9 11 13 16 16 17 18 19 19 20 21 19 20 12 13 12 15 15 12 10 11 10 11 13 13 14 16 16 16 16 16 14
9 9 8 9 9 9 9 9 9 9 9 9 9 9 10 9 12 13 14 15 15 15 17 19 20 20 20 10 12 14 13 13 15 15 12 10 9 12 11 14 14 15 16 17 16 14 15
8 8 8 8 9 9 9 9 9 9 8 8 8 8 8 9 13 13 13 14 15 15 14 16 19 18 18 10 11 11 12 11 13 14 15 11 9 11 10 12 13 14 16 16 16 15 15
8 8 8 8 8 8 9 8 8 8 6 6 8 8 8 8 12 13 13 14 14 15 14 16 16 17 12 12 11 10 10 9 11 12 13 12 11 10 9 12 15 14 15 16 16 15 15
7 7 8 8 8 8 8 8 8 6 6 5 7 7 7 7 11 13 13 14 14 16 14 16 16 16 17 10 9 8 10 8 9 13 11 12 12 11 11 10 13 15 15 16 16 16 15
Height
1541 1539 1538 1536 1535 1533 1532 1531 1529 1527 1526 1524 1522 1520 1518 1516 1514 1512 1510 1508 1507 1505 1503 1502 1500 1499 1498 1498 1497 1497 1497 1498 1500 1502 1503 1505 1508 1511 1513 1513 1512 1513 1516 1519 1521 1526 1527
1542 1540 1538 1537 1535 1534 1532 1531 1529 1527 1526 1524 1522 1520 1518 1515 1513 1512 1510 1508 1507 1505 1503 1502 1500 1499 1498 1498 1497 1498 1498 1499 1501 1502 1504 1506 1509 1511 1512 1512 1514 1512 1515 1519 1524 1525 1526
1543 1541 1539 1537 1535 1534 1532 1530 1529 1527 1525 1523 1522 1520 1517 1515 1513 1511 1510 1508 1506 1505 1503 1502 1500 1498 1497 1497 1497 1498 1499 1500 1501 1503 1505 1507 1509 1511 1513 1512 1512 1512 1517 1520 1526 1525 1528
1545 1543 1540 1538 1536 1534 1532 1530 1528 1526 1524 1522 1520 1519 1517 1515 1513 1511 1509 1507 1505 1503 1502 1501 1499 1498 1496 1497 1497 1498 1499 1500 1501 1502 1504 1507 1509 1511 1512 1512 1512 1514 1517 1526 1529 1526 1530
1546 1543 1541 1538 1536 1534 1532 1530 1528 1526 1524 1521 1519 1518 1516 1514 1512 1510 1508 1506 1503 1502 1501 1500 1499 1498 1497 1498 1498 1497 1498 1500 1502 1503 1504 1507 1509 1511 1511 1515 1523 1522 1531 1527 1530 1529 1530
1547 1544 1541 1539 1536 1534 1532 1530 1527 1525 1523 1521 1519 1516 1514 1512 1510 1509 1507 1505 1501 1500 1500 1499 1499 1500 1497 1498 1497 1496 1496 1499 1502 1503 1506 1508 1509 1513 1516 1522 1538 1527 1533 1529 1530 1532 1532
1547 1544 1541 1539 1536 1533 1531 1529 1527 1524 1522 1520 1518 1515 1513 1511 1509 1508 1508 1504 1505 1502 1498 1498 1498 1498 1496 1497 1496 1496 1496 1499 1502 1504 1507 1508 1515 1521 1518 1516 1516 1518 1523 1530 1526 1526 1526
1548 1545 1542 1539 1536 1533 1530 1528 1525 1523 1521 1518 1516 1514 1512 1510 1508 1508 1508 1507 1508 1510 1501 1495 1494 1494 1494 1495 1496 1496 1498 1500 1501 1506 1506 1514 1519 1511 1512 1513 1514 1520 1528 1532 1529 1528 1530
1548 1545 1542 1539 1535 1532 1529 1527 1524 1522 1520 1517 1515 1512 1510 1509 1508 1509 1508 1509 1508 1505 1504 1495 1494 1493 1493 1495 1495 1495 1498 1499 1500 1505 1508 1517 1512 1508 1510 1514 1516 1522 1524 1530 1526 1529 1531
1549 1545 1542 1539 1535 1531 1528 1525 1523 1520 1518 1516 1513 1511 1509 1508 1510 1508 1509 1508 1506 1503 1513 1500 1494 1493 1493 1493 1494 1494 1496 1499 1501 1504 1508 1509 1507 1507 1511 1514 1514 1523 1513 1517 1527 1530 1540
1549 1545 1542 1538 1535 1531 1527 1524 1521 1518 1516 1514 1511 1509 1508 1507 1507 1508 1509 1508 1505 1505 1534 1496 1493 1492 1492 1494 1495 1495 1496 1497 1502 1503 1506 1512 1506 1507 1511 1510 1508 1516 1510 1521 1527 1534 1535
1548 1544 1541 1538 1534 1530 1526 1522 1519 1516 1513 1511 1509 1507 1506 1506 1505 1507 1507 1507 1507 1520 1523 1499 1491 1492 1492 1492 1493 1494 1495 1498 1499 1501 1504 1504 1500 1501 1502 1502 1502 1509 1519 1526 1532 1540 1547
1547 1543 1540 1536 1533 1529 1525 1521 1517 1514 1510 1508 1506 1504 1502 1503 1504 1505 1506 1507 1521 1529 1501 1502 1497 1493 1492 1495 1494 1494 1497 1502 1509 1516 1515 1505 1500 1499 1500 1508 1509 1512 1527 1554 1552 1554 1544
1545 1542 1538 1534 1531 1527 1523 1519 1515 1511 1507 1505 1502 1500 1499 1500 1502 1504 1505 1509 1521 1506 1506 1496 1497 1495 1498 1497 1496 1496 1501 1509 1502 1507 1519 1522 1521 1502 1497 1502 1510 1516 1519 1544 1547 1552 1539
1543 1540 1536 1532 1528 1525 1521 1517 1513 1509 1505 1501 1498 1496 1495 1497 1500 1503 1506 1522 1516 1506 1500 1499 1498 1506 1506 1499 1498 1502 1506 1509 1503 1503 1516 1518 1513 1492 1494 1494 1498 1514 1521 1514 1535 1535 1537
1540 1537 1533 1530 1526 1522 1519 1515 1511 1507 1503 1499 1495 1493 1493 1496 1499 1502 1506 1514 1506 1499 1497 1497 1506 1503 1510 1506 1504 1506 1508 1502 1503 1501 1500 1505 1518 1494 1492 1493 1496 1502 1502 1522 1534 1543 1538
1537 1534 1530 1527 1523 1520 1517 1513 1509 1505 1501 1497 1494 1492 1493 1495 1499 1502 1512 1510 1500 1495 1495 1498 1502 1504 1504 1504 1506 1510 1508 1503 1501 1501 1502 1502 1512 1503 1494 1496 1502 1505 1509 1513 1519 1526 1535
1533 1530 1526 1523 1520 1517 1514 1511 1508 1503 1500 1497 1493 1494 1493 1495 1500 1504 1507 1501 1496 1494 1493 1494 1495 1497 1501 1505 1507 1510 1507 1503 1500 1501 1503 1503 1512 1517 1501 1491 1491 1493 1497 1502 1523 1519 1524
1529 1526 1523 1520 1517 1514 1512 1510 1507 1503 1500 1496 1494 1493 1493 1495 1503 1505 1500 1498 1495 1493 1493 1493 1495 1496 1498 1506 1509 1508 1505 1500 1500 1500 1501 1500 1512 1522 1505 1497 1493 1499 1497 1499 1508 1513 1521
1526 1523 1520 1517 1514 1512 1510 1508 1506 1503 1501 1499 1496 1495 1494 1495 1495 1497 1498 1497 1496 1491 1490 1490 1492 1494 1499 1505 1507 1505 1505 1500 1500 1500 1499 1498 1511 1509 1524 1513 1505 1507 1502 1499 1504 1517 1515
1522 1520 1517 1514 1512 1509 1508 1506 1504 1502 1500 1500 1497 1495 1494 1496 1494 1493 1494 1493 1493 1494 1488 1488 1491 1491 1497 1507 1507 1507 1505 1503 1498 1498 1498 1500 1511 1509 1507 1506 1506 1517 1505 1501 1500 1509 1506
1518 1516 1513 1511 1508 1506 1505 1503 1503 1500 1499 1498 1497 1497 1494 1492 1491 1492 1492 1490 1488 1488 1487 1487 1490 1490 1494 1503 1502 1506 1502 1503 1502 1500 1499 1502 1507 1506 1507 1503 1503 1507 1502 1502 1503 1504 1504
1514 1512 1510 1508 1506 1503 1502 1501 1500 1499 1498 1496 1495 1497 1496 1490 1490 1491 1488 1484 1484 1486 1481 1479 1482 1489 1494 1493 1493 1495 1497 1498 1498 1500 1502 1503 1509 1512 1515 1510 1500 1512 1507 1507 1504 1503 1505
1511 1509 1507 1505 1503 1501 1500 1498 1498 1497 1496 1496 1495 1496 1496 1493 1489 1486 1483 1483 1481 1480 1480 1479 1482 1485 1490 1490 1493 1496 1498 1500 1500 1501 1499 1502 1512 1512 1515 1510 1527 1506 1501 1502 1504 1500 1502
1508 1506 1504 1502 1501 1499 1497 1496 1495 1495 1494 1493 1493 1495 1494 1493 1489 1484 1482 1480 1477 1475 1477 1477 1481 1484 1487 1489 1499 1507 1509 1504 1503 1503 1501 1499 1509 1520 1520 1522 1515 1505 1504 1500 1503 1502 1497
1505 1503 1501 1500 1498 1496 1494 1493 1492 1492 1491 1490 1491 1492 1493 1493 1484 1484 1482 1479 1479 1478 1478 1480 1482 1484 1486 1491 1503 1512 1518 1512 1509 1504 1503 1502 1505 1514 1523 1519 1521 1503 1496 1492 1499 1512 1493
1501 1499 1497 1496 1494 1493 1491 1489 1489 1488 1488 1487 1488 1489 1491 1489 1482 1482 1482 1480 1480 1480 1481 1481 1482 1484 1485 1497 1510 1516 1515 1512 1515 1510 1506 1510 1514 1517 1523 1521 1513 1499 1497 1495 1513 1510 1492
1497 1496 1495 1493 1491 1489 1487 1486 1486 1485 1485 1485 1485 1486 1487 1485 1479 1479 1480 1479 1480 1480 1482 1482 1484 1483 1487 1499 1505 1512 1515 1513 1512 1507 1504 1509 1515 1520 1525 1520 1513 1497 1498 1502 1497 1493 1493
1493 1492 1491 1489 1487 1485 1484 1483 1482 1482 1482 1482 1483 1482 1484 1485 1477 1474 1475 1475 1476 1478 1481 1480 1479 1476 1478 1492 1500 1506 1510 1513 1513 1511 1502 1509 1504 1511 1512 1511 1496 1494 1494 1493 1493 1491 1493
Wind_Speed
11 10 9 9 8 9 9 9 10 11 12 13 13 13 13 13 12 11 11 11 11 10 10 10 8 7 6 2 1 1 3 5 11 12 11 11 11 5 1 2 3 3 3 8 12 18 7
12 12 11 10 9 9 10 10 10 10 11 12 13 13 13 13 11 11 11 11 11 10 10 10 10 7 5 1 4 4 7 5 4 10 10 10 6 5 2 2 2 3 7 9 5 7 1
14 15 14 11 11 10 11 11 11 11 12 12 12 13 13 12 11 9 9 10 11 12 10 10 10 10 4 1 5 5 4 2 2 2 7 11 7 5 2 4 6 16 4 9 9 3 3
15 15 14 12 10 10 10 11 11 12 12 13 13 13 14 13 11 8 9 11 13 12 9 9 12 9 1 8 5 6 5 4 1 1 5 3 10 4 2 4 3 3 4 3 6 6 1
16 16 15 14 12 11 10 10 11 11 12 12 13 13 14 14 12 7 9 12 14 10 7 9 7 5 2 1 5 7 10 5 2 4 14 9 7 1 1 3 4 6 3 5 4 6 2
17 16 16 15 13 12 11 11 12 12 13 13 13 13 13 13 11 6 9 14 11 6 3 7 3 2 2 6 7 2 5 8 1 4 6 5 3 2 4 4 3 2 4 3 4 3 7
20 18 17 16 15 14 13 12 12 13 14 14 14 14 13 12 9 5 9 8 8 3 12 5 8 7 9 2 5 1 7 9 5 2 3 2 4 4 2 5 4 4 3 5 3 5 4
21 21 20 18 16 14 14 13 14 14 14 14 15 15 13 11 8 4 8 6 8 10 9 8 5 11 8 5 2 3 7 5 4 3 4 5 1 4 4 3 2 5 7 2 1 4 2
21 21 21 20 19 16 15 14 14 15 15 15 15 15 12 10 5 1 5 8 14 14 2 6 4 6 2 5 5 4 9 5 2 2 3 5 3 5 3 2 4 4 5 5 3 5 3
20 21 22 21 20 19 16 16 16 16 16 16 15 14 12 8 1 1 2 10 17 5 5 6 3 1 2 2 2 6 7 5 3 4 5 2 3 3 3 4 5 3 7 9 10 5 2
21 21 21 22 22 21 19 17 18 18 17 15 15 14 11 5 6 2 3 10 9 3 4 2 2 1 2 3 1 3 9 7 5 3 6 6 2 3 4 7 8 5 11 6 2 3 2
21 21 21 22 22 22 21 20 19 19 18 16 14 15 12 9 8 5 3 9 2 5 1 5 1 1 2 1 2 2 4 4 1 3 1 6 3 5 6 2 9 11 7 7 5 3 2
21 22 22 22 22 23 23 22 21 20 19 17 14 14 14 9 5 6 4 4 5 3 3 5 2 1 1 3 2 2 4 2 3 3 3 4 3 1 6 8 6 5 7 3 2 0 5
21 22 22 23 23 23 24 23 22 20 20 18 15 13 13 7 9 6 2 4 2 2 4 4 3 2 3 5 4 3 3 2 1 4 1 1 5 8 4 5 7 4 6 6 6 4 2
22 23 23 23 24 24 24 24 23 21 20 19 14 12 7 6 12 7 3 3 6 4 3 3 3 6 5 4 2 4 4 2 2 4 6 1 5 1 5 5 10 6 5 5 5 2 1
23 23 22 23 23 24 24 24 24 21 19 19 15 7 3 9 12 10 4 5 4 4 3 2 3 2 2 5 4 4 0 1 2 2 3 2 3 3 2 5 1 5 7 2 2 4 4
24 22 22 22 22 23 23 23 24 22 18 16 10 1 5 14 13 4 3 6 5 7 3 4 3 3 0 3 2 1 1 2 1 3 2 3 2 6 1 2 7 2 2 1 4 4 5
25 25 22 23 22 21 21 22 23 22 17 13 4 2 10 17 4 1 3 5 2 3 1 2 4 2 3 2 2 3 3 4 1 1 1 0 4 3 6 7 2 4 6 6 4 4 2
23 22 23 22 20 18 18 19 20 20 18 16 10 0 6 14 3 2 4 3 4 2 3 4 4 3 2 4 1 1 2 2 2 3 3 3 1 3 5 4 4 4 3 2 3 3 5
21 20 21 21 18 16 16 16 17 17 14 13 5 1 2 10 1 5 3 4 3 3 4 4 5 4 3 2 1 2 2 3 5 3 9 3 2 5 4 6 1 5 5 3 4 3 4
19 20 20 19 16 15 16 15 14 13 11 10 2 2 0 2 2 3 4 2 3 3 2 3 1 4 7 4 1 3 2 4 2 5 2 4 5 4 5 3 6 8 4 7 1 3 4
18 20 18 19 19 15 14 14 13 11 8 5 3 3 3 4 3 3 5 5 4 3 6 4 5 4 5 6 8 8 5 3 2 3 3 3 1 2 1 3 4 1 8 3 4 4 1
16 17 17 17 18 14 15 13 12 10 7 2 2 4 4 3 2 2 4 3 3 5 6 11 11 6 5 6 8 3 5 4 2 1 1 2 3 2 5 6 4 4 0 3 1 4 3
16 17 16 14 15 14 14 14 12 10 7 6 5 3 1 4 1 4 1 2 8 7 6 7 16 6 6 8 11 10 8 5 5 8 1 4 3 2 2 0 4 4 1 5 2 2 4
16 16 16 15 14 14 15 13 12 10 9 8 7 4 3 3 4 8 6 4 8 1 1 8 9 5 15 7 4 4 4 2 2 5 3 2 4 3 3 3 3 4 6 5 4 5 3
16 16 15 15 15 15 14 13 13 11 11 10 9 9 5 1 5 5 4 4 1 2 3 4 8 10 7 5 4 3 3 1 2 1 2 5 6 4 3 2 4 4 2 8 7 5 4
17 17 15 15 16 15 15 14 12 12 11 11 9 9 9 5 10 2 3 1 3 2 1 0 6 3 4 3 3 3 3 1 2 3 4 1 3 4 1 2 6 5 1 8 3 6 10
17 16 15 15 16 16 14 14 13 11 9 11 8 12 14 5 18 14 8 8 10 1 3 2 4 1 3 4 3 3 3 4 1 4 3 4 4 2 2 1 3 1 2 5 3 3 10
16 16 16 16 17 16 15 14 13 9 9 10 9 12 13 17 10 10 14 16 16 13 10 4 3 7 7 5 1 3 2 2 2 2 0 1 5 4 6 5 5 7 7 6 6 9 8
Wind_Direction
24 22 22 17 13 12 10 11 9 10 11 13 13 10 10 8 5 6 7 7 8 11 8 3 352 343 348 322 115 130 49 134 181 193 189 178 172 142 131 296 163 178 151 164 175 216 225
29 25 19 14 13 10 9 7 3 2 3 4 4 4 5 4 359 357 359 1 359 352 347 349 352 351 336 335 136 117 84 103 173 203 203 184 199 207 326 300 215 125 125 117 159 132 82
28 20 16 13 10 8 5 4 2 358 355 356 356 356 357 357 353 346 347 348 344 340 338 341 339 341 303 155 154 166 145 124 66 257 213 199 166 128 317 315 2 142 118 91 44 74 114
24 18 16 14 9 6 4 1 359 357 354 352 351 349 349 348 347 337 329 332 330 325 320 329 337 341 352 161 182 218 228 226 331 331 172 107 202 283 248 317 53 185 112 106 21 61 353
20 18 16 13 7 2 360 357 355 355 354 351 349 346 343 342 343 334 316 326 326 315 314 330 335 351 103 57 279 257 245 219 78 93 119 118 137 231 296 90 31 4 101 86 125 39 89
14 13 11 9 6 359 353 349 348 351 351 350 348 344 341 339 342 328 320 333 331 324 315 326 343 360 80 332 360 311 214 209 135 124 139 136 131 64 46 70 209 141 131 67 127 138 91
14 11 6 1 360 357 351 347 343 344 346 347 347 345 341 336 339 333 9 360 352 340 323 276 288 276 281 334 337 3 158 157 184 153 112 102 96 208 135 200 160 124 108 120 155 180 134
13 12 9 1 354 351 348 344 340 340 341 340 342 344 341 334 331 0 38 53 37 334 308 322 280 262 265 270 275 191 173 151 161 171 112 35 252 210 176 178 153 116 123 131 33 111 87
7 8 7 2 356 347 343 342 339 337 336 336 334 337 340 330 322 29 32 20 347 335 252 302 295 289 290 178 212 191 176 172 129 107 147 139 222 103 157 178 127 155 177 190 152 141 48
1 1 2 0 356 352 343 338 336 334 332 334 332 328 335 331 289 277 95 353 341 337 57 291 285 336 191 201 302 197 195 167 32 170 140 198 273 202 161 219 155 202 192 144 140 137 193
355 354 355 356 355 351 346 339 333 329 326 327 329 323 327 314 272 256 304 343 345 2 56 281 239 237 158 145 317 181 179 172 150 155 97 249 243 215 195 217 164 236 110 116 88 61 92
348 348 349 349 350 349 345 341 335 335 329 320 321 317 314 296 253 230 296 339 1 40 1 338 236 66 73 210 244 132 149 152 156 153 48 239 238 188 209 14 177 130 83 54 52 54 288
343 344 343 343 344 345 345 342 338 334 329 322 314 309 301 277 205 188 292 343 44 120 317 310 317 352 156 335 5 93 116 75 110 51 339 314 246 60 127 77 20 88 78 23 349 294 234
338 338 338 338 339 340 342 343 339 333 330 323 317 305 290 247 212 205 319 54 139 240 272 313 22 28 65 357 43 36 81 65 100 116 139 220 317 168 177 169 172 158 141 160 208 194 247
329 329 331 332 334 335 338 340 340 336 331 326 323 309 278 197 188 190 156 88 203 204 256 334 12 56 340 10 92 70 27 151 204 174 171 176 277 219 199 151 149 209 205 155 104 354 101
321 322 325 327 328 330 332 336 337 338 333 330 331 314 204 176 170 165 92 223 221 215 323 81 123 180 59 321 47 59 312 288 281 250 207 188 299 251 245 113 327 156 167 114 23 163 241
318 320 320 322 322 324 327 332 336 338 337 334 332 347 152 152 151 170 165 228 249 255 242 155 201 155 151 151 100 31 214 280 244 312 243 145 125 295 357 181 186 124 165 71 130 164 166
313 318 318 320 320 319 324 330 333 337 343 339 336 69 162 161 98 51 174 202 241 248 265 158 131 131 150 141 129 176 208 227 222 288 295 29 146 269 245 292 231 197 193 153 137 242 243
313 320 321 323 321 318 323 329 333 338 344 351 336 304 164 185 159 239 272 277 264 258 252 167 167 177 57 132 146 233 266 261 340 321 231 213 357 7 355 343 42 34 5 91 103 85 200
310 314 314 322 318 318 323 328 333 337 338 340 326 37 139 205 232 155 190 269 250 258 262 184 143 117 111 102 310 201 269 305 318 275 333 155 130 148 206 238 344 325 343 348 149 135 180
306 310 312 317 317 315 320 326 330 335 334 333 301 285 141 218 246 201 187 264 237 258 234 134 49 191 149 156 191 229 221 304 334 337 92 105 190 170 175 271 86 254 353 357 71 99 180
305 308 315 316 312 306 312 320 326 330 329 317 311 340 348 280 280 208 177 221 218 280 195 189 167 180 149 153 184 206 171 204 221 315 76 344 170 283 66 98 268 336 30 344 15 19 5
311 313 313 316 314 306 308 315 320 322 325 292 274 299 303 277 285 158 215 192 241 344 245 190 168 130 155 216 175 145 190 131 150 235 8 86 90 28 169 299 37 336 291 56 224 359 310
309 309 312 314 316 312 307 310 311 311 305 271 261 279 293 279 247 228 294 281 276 239 200 147 156 121 170 147 118 96 82 109 57 22 271 116 103 66 259 71 183 283 183 152 229 254 311
306 307 308 311 313 312 309 308 309 304 292 279 252 225 220 262 277 293 283 276 314 208 184 148 172 171 163 133 64 38 352 37 353 40 32 104 116 99 199 183 274 163 212 155 147 277 186
304 306 311 311 311 308 305 304 303 301 287 273 253 229 216 252 240 268 308 322 325 24 34 102 133 152 174 85 79 128 209 227 314 335 137 83 92 129 127 94 215 247 180 101 91 295 184
303 305 311 314 313 311 305 299 297 294 285 267 252 229 212 233 271 287 239 305 360 33 162 253 161 142 139 89 91 146 226 185 201 224 217 24 31 135 131 197 281 251 196 100 118 244 172
296 298 303 309 314 313 307 299 295 289 268 260 247 225 212 244 259 257 254 278 303 265 132 5 95 16 65 74 120 193 160 219 163 236 199 182 130 161 104 137 282 95 126 173 227 153 174
293 296 301 307 310 310 306 301 293 285 252 252 241 224 219 242 265 261 256 251 253 245 286 248 262 178 153 93 119 118 154 137 157 256 30 247 176 179 171 218 268 274 234 263 187 169 173